Погода в Вишневке

Россия / Волгоградская область     49°25′37″N   46°46′18″E
темп.,
°C
ветер,
м/с
пор.,
м/с
влажн.,
%
обл.,
%
осадки,
мм/ч
давл.,
гПа
погр.,
м
15 августа, пн
пн1500:00+25св612335 0.0 1014248
03:00+22св48455 0.0 1014148
06:00+24всв5113763 0.0 1015298
09:00+31в78293 0.0 1015989
12:00+33в77230 0.0 10162163
15:00+34всв77202 0.0 10152437
18:00+31св77200 0.0 10151671
21:00+25ссв511230 0.0 1016202
16 августа, вт
вт1600:00+23св512310 0.0 1016235
03:00+21св4944100 0.0 1015171
06:00+23всв612436 0.0 1015329
09:00+30в89246 0.0 1015807
12:00+34в771897 0.0 10151772
15:00+35в5515100 0.0 10142133
18:00+34всв571598 0.0 1014527
21:00+29всв71421100 0.0 1014357
17 августа, ср
ср1700:00+29св81323100 0.0 1015510
03:00+26всв7132489 0.0 1014319
06:00+26всв71324100 0.0 1014343
09:00+29в81220100 0.0 1014451
12:00+36в891471 0.0 10131524
15:00+38вюв881474 0.0 10122590
18:00+35в9121798 0.0 10111112
21:00+32вюв9161877 0.0 1011643
18 августа, чт
чт1800:00+29вюв8152138 0.0 1011364
03:00+27юв4926100 0.0 1011151
06:00+27вюв51026100 0.0 1012260
09:00+34вюв7919100 0.0 10121029
12:00+37юв81114100 0.0 10123124
15:00+35всв8918100 0.0 10121684
18:00+33всв81120100 0.0 1011931
21:00+31в91524100 0.0 1013586
19 августа, пт
пт1900:00+29вюв91329100 0.0 1014488
03:00+27в6931100 0.0 1013203
06:00+28в7132999 0.0 1015562
09:00+33юв9111892 0.0 10161290
12:00+36юв91114100 0.0 10153279
15:00+34юв71016100 0.0 10163618
18:00+32в5721100 0.0 1016239
21:00+29в121926100 0.0 1017801